Regional Weather Roundup
Issued by NWS

Home | Current Version | Previous Version | Text Only | Print | Product List | Glossary Off
Versions: 1 2 3 4 5 6 7 8 9 10 11 12 13 14 15 16 17 18 19 20 21 22 23 24 25 26 27 28 29 30 31 32 33 34 35 36 37 38 39 40 41 42 43 44 45 46 47 48 49 50

000
ASUS45 KABQ 060610
RWRNM
NEW MEXICO REGIONAL WEATHER ROUNDUP
NATIONAL WEATHER SERVICE ALBUQUERQUE NM
1100 PM MST FRI FEB 05 2016

NOTE: "FAIR" MEANS FEW OR NO CLOUDS BELOW 12,000 FEET AGL WITH NO
       SIGNIFICANT WEATHER OR OBSTRUCTIONS TO VISION.

      THIS PRODUCT IS RELEASED AS TWO VERSIONS.  ONE VERSION NEAR
      THE TOP OF THE HOUR CONTAINING PRELIMINARY DATA FROM ALBUQUERQUE
      AND OTHER STATIONS.  A FINAL VERSION WITH ADDITIONAL DATA IS
      ISSUED ABOUT 10 MINUTES AFTER THE HOUR.

NMZ501-503-504-510>518-060700-
NORTHWEST PLATEAU/NORTHCENTRAL MOUNTAINS

CITY           SKY/WX    TMP DP  RH WIND       PRES   REMARKS
FARMINGTON     CLOUDY    21  14  74 MISG      30.46R
6HR MIN TEMP:  21; 6HR MAX TEMP:  35;

LOS ALAMOS     CLOUDY    23   6  47 CALM      30.40S
SANTA FE       CLOUDY    22  11  62 N13       30.40R WCI  10
6HR MIN TEMP:  20; 6HR MAX TEMP:  36;

TAOS           CLOUDY     1  -4  78 N7        30.42R WCI -11
ANGEL FIRE     FAIR      -1  -6  77 CALM      30.37R

$$
NMZ402-403-502-505>509-060700-
WESTCENTRAL MOUNTAINS/SOUTHWEST MOUNTAINS

CITY           SKY/WX    TMP DP  RH WIND       PRES   REMARKS
GALLUP         CLEAR     16  11  80 NE3       30.48R
6HR MIN TEMP:  14; 6HR MAX TEMP:  37;

GRANTS         CLEAR      9   5  82 NW3       30.50R
SILVER CITY      N/A     18   7  62 NW8       30.44R WCI   7

$$
NMZ407-409-411-412-060700-
SOUTHERN DESERTS

CITY           SKY/WX    TMP DP  RH WIND       PRES   REMARKS
LORDSBURG      FAIR      32  10  40 SE8       30.42S WCI  25
DEMING         CLEAR     32   2  27 E8        30.44R WCI  25
6HR MIN TEMP:  29; 6HR MAX TEMP:  51;

LAS CRUCES     CLEAR     27  -1  29 N8        30.43S WCI  19
HOLLOMAN AFB   CLOUDY    25   0  34 NE8       30.42S WCI  16
ALAMOGORDO     CLOUDY    30   3  31 SE3       30.43R
T OR C         CLEAR     32   2  27 NW9       30.43R WCI  24
6HR MIN TEMP:  29; 6HR MAX TEMP:  48;


$$
NMZ519>523-060700-
CENTRAL VALLEYS/CENTRAL HIGHLANDS

CITY           SKY/WX    TMP DP  RH WIND       PRES   REMARKS
ALBUQUERQUE    CLOUDY    31  12  45 NW12      30.46S WCI  22
6HR MIN TEMP:  30; 6HR MAX TEMP:  41;

DOUBLE EAGLE   CLOUDY    26  11  53 N10       30.45R WCI  16
MORIARTY ARPT  FAIR      21  10  61 NW9       30.41R WCI  11
6HR MIN TEMP:  19; 6HR MAX TEMP:  36;

CLINES CORNERS CLEAR     20   9  62 NW12      30.34R WCI   8
6HR MIN TEMP:  18; 6HR MAX TEMP:  30;

BELEN          FAIR      24   8  51 N6        30.46S WCI  16
6HR MIN TEMP:  21; 6HR MAX TEMP:  43;

SOCORRO        FAIR      26   2  35 N6        30.46R WCI  20
6HR MIN TEMP:  26; 6HR MAX TEMP:  45;


$$
NMZ524>526-539-540-060700-
SOUTHCENTRAL MOUNTAINS

CITY           SKY/WX    TMP DP  RH WIND       PRES   REMARKS
RUIDOSO          N/A     25   0  33 W10       30.40S WCI  15

$$
NMZ527>531-060700-
NORTHEAST HIGHLANDS/NORTHEAST PLAINS

CITY           SKY/WX    TMP DP  RH WIND       PRES   REMARKS
LAS VEGAS      CLOUDY    18   6  59 VRB3      30.33S
6HR MIN TEMP:  17; 6HR MAX TEMP:  33;

RATON          CLOUDY    13   7  77 CALM      30.32R
6HR MIN TEMP:  12; 6HR MAX TEMP:  31;

CLAYTON        CLEAR     22  13  68 W14       30.33S WCI   9
6HR MIN TEMP:  20; 6HR MAX TEMP:  34;


$$
NMZ532>537-060700-
EASTCENTRAL PLAINS

CITY           SKY/WX    TMP DP  RH WIND       PRES   REMARKS
TUCUMCARI      CLEAR     24  14  65 W9        30.37S WCI  14
6HR MIN TEMP:  20; 6HR MAX TEMP:  43;

CANNON AFB     CLEAR     24  15  69 W5        30.36R WCI  18
6HR MIN TEMP:  22; 6HR MAX TEMP:  39;

CLOVIS AIRPORT CLEAR     25  12  58 NW10      30.36F WCI  15

$$
NMZ028-029-538-060700-
SOUTHEAST PLAINS

CITY           SKY/WX    TMP DP  RH WIND       PRES   REMARKS
ROSWELL        CLEAR     26  12  55 W6        30.43R WCI  19
6HR MIN TEMP:  25; 6HR MAX TEMP:  50;

ARTESIA        CLEAR     30  14  51 W12       30.45R WCI  21
CARLSBAD       CLEAR     29  14  53 W10       30.43R WCI  20
6HR MIN TEMP:  28; 6HR MAX TEMP:  51;

HOBBS          CLEAR     25  16  68 NW8       30.41R WCI  16


$$




USA.gov is the U.S. government's official web portal to all federal, state and local government web resources and services.